Regional Weather Roundup
Issued by NWS

Home | Current Version | Previous Version | Graphics & Text | Print | Product List | Glossary Off
Versions: 1 2 3 4 5 6 7 8 9 10 11 12 13 14 15 16 17 18 19 20 21 22 23 24 25 26 27 28 29 30 31 32 33 34 35 36 37 38 39 40 41 42 43 44 45 46 47 48 49 50

000
ASUS43 KDMX 010007
RWRIA

WEATHER ROUNDUP FOR IOWA
NATIONAL WEATHER SERVICE DES MOINES IA
700 PM CDT FRI JUL 31 2015

NOTE: "FAIR" INDICATES FEW OR NO CLOUDS BELOW 12,000 FEET WITH NO
SIGNIFICANT WEATHER AND/OR OBSTRUCTIONS TO VISIBILITY.

* - THESE STATIONS ARE NOT NWS STATIONS...THUS NOT UNDER NWS
QUALITY CONTROL.  THEY ALSO DO NOT REPORT WEATHER SUCH
AS PRECIPITATION OR FOG.

IAZ001>003-012>014-020>022-031>034-043>046-010100-
   NORTHWEST IOWA

CITY           SKY/WX    TMP DP  RH WIND       PRES   REMARKS
CARROLL *      SUNNY     82  66  57 NE6       30.05F HX  85
CHEROKEE *     SUNNY     82  62  50 CALM      30.06F HX  82
DENISON *      SUNNY     82  72  69 E8        30.03F HX  87
LE MARS *      SUNNY     82  63  51 SE6       30.06F HX  83
ORANGE CITY *  SUNNY     81  57  44 SE3       30.07F HX  81
SHELDON *      SUNNY     81  61  50 CALM      30.06F HX  81
SIOUX CITY     SUNNY     84  70  62 E10       30.03F HX  88
6HR MIN TEMP:  83; 6HR MAX TEMP:  87;

SPENCER        SUNNY     83  56  39 CALM      30.07F HX  82
6HR MIN TEMP:  83; 6HR MAX TEMP:  87;

STORM LAKE *   SUNNY     81  63  54 SE3       30.08S HX  82
$$

IAZ055>058-069>071-079>083-090>094-010100-
   SOUTHWEST IOWA

CITY           SKY/WX    TMP DP  RH WIND       PRES   REMARKS
ATLANTIC *     MOSUNNY   82  75  78 CALM      30.04F HX  89
AUDUBON *      SUNNY     82  73  74 NE3       30.06  HX  88
CLARINDA *     MOSUNNY   82  79  89 CALM      30.05S HX  93
COUNCIL BLFS * PTSUNNY   82  75  78 CALM      30.04F HX  89
CRESTON *      MOSUNNY   72  64  78 SW8G14    30.09S
HARLAN  *      SUNNY     81  81 100 CALM      30.07F HX  91
LAMONI         CLOUDY    76  63  64 W7        30.05S
6HR MIN TEMP:  76; 6HR MAX TEMP:  89;

RED OAK *      SUNNY     77  66  69 CALM      30.03F
SHENANDOAH *   LGT RAIN  79  70  73 CALM      30.03F HX  81
$$

IAZ047>049-059>061-072>074-084-010100-
   CENTRAL IOWA

CITY           SKY/WX    TMP DP  RH WIND       PRES   REMARKS
AMES           SUNNY     82  63  52 NE7       30.04F HX  83
6HR MIN TEMP:  82; 6HR MAX TEMP:  86;

ANKENY *       CLOUDY    81  70  69 NE5       30.04S HX  84
CHARITON *     SUNNY     81  72  74 CALM      30.05S HX  84
DES MOINES     MOSUNNY   86  59  39 E5        30.03S HX  85
6HR MIN TEMP:  86; 6HR MAX TEMP:  90;

GRINNELL*      SUNNY     79  66  65 N5        30.06R HX  81
KNOXVILLE *    SUNNY     84  57  39 N5        30.03S HX  83
MARSHALLTOWN   SUNNY     80  63  55 N6        30.04F HX  81
6HR MIN TEMP:  80; 6HR MAX TEMP:  84;

PELLA *        SUNNY     81  69  68 CALM      30.05S HX  84
PERRY *          N/A     82  66  57 NE3       30.05S HX  85
$$

IAZ004>006-015-016-023>025-035-036-010100-
   NORTH CENTRAL IOWA

CITY           SKY/WX    TMP DP  RH WIND       PRES   REMARKS
ALGONA *       SUNNY     81  57  44 NW3       30.06S HX  81
CLARION *      SUNNY     79  63  57 CALM      30.06S HX  80
ESTHERVILLE    SUNNY     80  57  45 N3        30.06F HX  80
6HR MIN TEMP:  80; 6HR MAX TEMP:  82;

FORT DODGE *   SUNNY     79  61  53 N3        30.06F HX  80
MASON CITY     SUNNY     79  61  53 NW6       30.05F HX  80
6HR MIN TEMP:  79; 6HR MAX TEMP:  83;

FOREST CITY *  SUNNY     77  57  50 NW6       30.04F
IOWA FALLS *     N/A     80  60  51 NW3       30.06F HX  81
$$

IAZ007>011-017>019-026>030-037>042-050>054-066-010100-
   NORTHEAST IOWA

CITY           SKY/WX    TMP DP  RH WIND       PRES   REMARKS
CEDAR RAPIDS   SUNNY     79  62  56 NW7       30.03S HX  80
6HR MIN TEMP:  79; 6HR MAX TEMP:  84;

CHARLES CITY * SUNNY     77  61  57 NW7       30.04S
CLINTON *      SUNNY     79  57  47 NW10      30.02S HX  80
DECORAH *      SUNNY     77  55  47 VRB7      30.00F
DUBUQUE        SUNNY     78  52  40 NW12      30.01S
6HR MIN TEMP:  78; 6HR MAX TEMP:  83;

MONTICELLO *   SUNNY     79  57  47 W8        30.01F HX  80
OELWEIN *      SUNNY     77  59  53 NW7G15    30.03F
WATERLOO       SUNNY     79  58  48 NW6       30.02F HX  80
6HR MIN TEMP:  79; 6HR MAX TEMP:  83;

$$

IAZ064-065-067-068-078-010100-
   EAST CENTRAL IOWA

CITY           SKY/WX    TMP DP  RH WIND       PRES   REMARKS
DAVENPORT      SUNNY     79  59  50 W8        30.01S HX  80
6HR MIN TEMP:  79; 6HR MAX TEMP:  85;

IOWA CITY      MOSUNNY   83  61  47 NW9       30.03S HX  83
6HR MIN TEMP:  82; 6HR MAX TEMP:  88;

MT. PLEASANT * MOSUNNY   84  55  35 NW3       30.03R HX  83
MUSCATINE *    MOSUNNY   82  59  44 NW6       30.01F HX  82
QUAD CITIES    SUNNY     83  54  36 NW13G23   30.00S HX  82
6HR MIN TEMP:  83; 6HR MAX TEMP:  89;

$$

IAZ062-063-075>077-085>089-095>099-010100-
   SOUTHEAST IOWA

CITY           SKY/WX    TMP DP  RH WIND       PRES   REMARKS
BURLINGTON     SUNNY     84  64  50 N5        30.02S HX  85
6HR MIN TEMP:  83; 6HR MAX TEMP:  88;

FAIRFIELD *    SUNNY     82  66  57 NW5       30.03S HX  85
FORT MADISON * SUNNY     81  68  65 N3        30.03S HX  83
KEOKUK *       MOSUNNY   84  70  61 N7        30.00F HX  88
OSKALOOSA *      N/A     81  66  59 N3        30.04S HX  83
CENTERVILLE *  PTSUNNY   82  73  74 N6        30.06S HX  88
OTTUMWA        SUNNY     83  68  60 N7        30.02S HX  86
6HR MIN TEMP:  83; 6HR MAX TEMP:  87;

WASHINGTON *   MOSUNNY   82  66  57 N8        30.04S HX  85
$$

ABBREVIATIONS USED IN REMARKS
   TC - TEMPERATURES IN CELSIUS
  WCI - WIND CHILL INDEX
   HX - HEAT INDEX
  VSB - VISIBILITY
$$




USA.gov is the U.S. government's official web portal to all federal, state and local government web resources and services.